Vorticity
nan nan nan nan nan nan nan nan nan nan nan nan nan nan nan nan nan nan nan nan nan nan nan nan nan nan nan nan nan nan nan nan nan nan nan nan nan nan nan nan nan nan nan
nan 6 9 5 7 9 6 3 2 7 9 16 15 9 7 5 6 1 2 2 2 2 4 7 7 6 6 7 6 5 6 6 5 3 -0 2 5 6 4 4 13 13 nan
nan 3 4 5 7 10 5 3 4 6 8 21 20 10 8 6 6 5 0 -3 2 3 5 9 8 6 5 5 5 6 4 5 5 3 0 1 7 6 6 7 7 6 nan
nan 5 5 7 7 9 6 2 3 6 17 23 21 11 7 8 7 8 4 -1 -3 4 10 9 7 6 6 6 6 5 6 5 3 5 8 4 4 6 6 5 7 7 nan
nan 7 3 7 9 9 8 4 4 7 14 15 14 12 8 6 5 7 7 3 -1 11 11 8 6 5 6 6 6 5 5 4 2 9 7 4 7 4 6 8 5 1 nan
nan 5 6 5 9 9 8 6 6 8 5 5 7 8 9 10 5 5 3 3 8 12 10 9 5 5 5 5 3 3 5 4 6 5 4 4 8 8 4 5 6 7 nan
nan 4 3 5 7 8 9 6 7 7 6 7 5 6 6 4 6 5 4 2 8 8 8 7 4 4 3 3 2 5 5 2 8 5 5 8 7 6 5 5 5 6 nan
nan 6 4 6 6 7 7 6 6 7 6 3 4 5 2 2 6 2 4 7 7 5 4 4 4 4 4 3 5 7 7 6 4 3 5 8 7 6 5 5 4 6 nan
nan 4 7 6 2 4 6 6 6 6 7 7 6 5 4 4 4 8 7 7 5 5 5 4 4 3 3 3 4 11 10 6 5 6 8 7 6 4 4 5 6 5 nan
nan 5 6 4 6 7 3 4 5 6 6 7 7 7 4 5 6 6 9 7 6 5 5 5 4 4 3 4 5 6 5 5 8 7 3 10 7 4 5 5 6 6 nan
nan 5 5 6 6 6 6 5 5 3 5 5 2 5 5 3 4 4 7 7 7 7 5 5 4 4 3 6 4 3 5 11 5 4 9 10 4 4 5 5 4 5 nan
nan 6 5 6 5 4 6 4 5 4 2 3 6 6 6 6 3 5 5 6 6 3 3 3 5 5 6 7 11 4 6 6 5 5 15 10 4 4 5 5 5 5 nan
nan 7 5 5 7 5 5 6 5 6 6 5 6 6 6 5 6 5 5 6 5 6 5 3 6 5 5 5 4 7 8 6 6 7 12 9 5 4 5 5 6 5 nan
nan 7 9 7 6 6 4 6 7 6 6 7 6 6 6 6 6 6 6 6 7 8 7 8 5 6 8 8 3 5 6 6 5 9 8 10 6 5 5 6 6 5 nan
nan 8 8 6 7 6 6 7 6 7 7 7 5 6 6 5 7 7 6 5 7 7 6 7 7 7 7 7 9 5 4 5 6 7 11 11 7 7 7 7 6 7 nan
nan 9 8 6 8 7 7 6 6 8 8 7 8 6 5 5 6 6 5 8 8 6 6 7 6 7 8 8 8 5 6 9 6 5 9 10 12 9 9 8 8 8 nan
nan 6 6 7 8 7 8 7 6 6 5 6 8 6 6 7 5 6 8 7 6 7 10 9 8 7 7 8 7 8 8 7 7 7 8 8 12 12 10 9 8 8 nan
nan 7 5 9 7 6 6 6 6 7 9 7 5 8 9 7 5 7 8 9 7 7 8 9 8 8 9 8 7 8 9 10 9 10 9 7 4 14 17 14 10 9 nan
nan 7 6 7 6 7 6 6 7 8 9 8 6 9 8 6 8 6 6 9 7 9 10 7 7 9 9 9 10 8 7 8 10 9 8 10 9 7 13 15 11 13 nan
nan 6 7 7 8 6 6 7 8 8 9 9 8 8 8 8 8 8 7 7 7 7 7 11 9 7 7 7 7 8 9 10 8 8 9 10 10 10 10 9 12 15 nan
nan 6 9 7 7 5 7 7 8 9 9 9 9 9 7 8 9 7 8 8 10 6 5 9 11 6 4 8 11 11 10 10 8 9 9 9 10 12 11 12 8 12 nan
nan 8 7 7 6 5 5 6 7 10 9 10 10 9 8 8 8 6 5 7 9 8 10 9 8 7 10 7 4 9 12 12 12 11 9 8 10 11 12 9 10 8 nan
nan 9 7 8 7 5 5 7 6 6 9 10 8 10 8 8 8 8 8 6 6 8 10 9 11 9 8 9 8 7 9 8 12 14 8 7 9 7 10 10 8 9 nan
nan 10 9 7 8 8 7 4 5 5 8 8 11 10 7 10 8 7 9 8 8 8 10 12 8 9 11 9 11 7 3 9 9 9 9 7 6 10 8 9 11 10 nan
nan 12 11 10 5 8 8 5 6 6 5 6 9 8 10 9 9 10 10 9 9 9 6 7 11 10 7 9 10 11 11 10 7 4 7 9 10 10 7 7 7 10 nan
nan nan nan nan nan nan nan nan nan nan nan nan nan nan nan nan nan nan nan nan nan nan nan nan nan nan nan nan nan nan nan nan nan nan nan nan nan nan nan nan nan nan nan
CAPE
385 717 1099 1218 1226 1109 997 907 657 430 428 449 709 827 713 581 439 599 572 432 535 333 543 726 848 665 1032 869 1007 874 763 804 858 822 801 747 702 678 597 430 479 443 608
532 871 1288 1401 1421 1352 1165 910 730 611 502 456 590 895 821 807 704 629 253 95 153 306 562 639 682 654 792 656 584 462 494 915 766 634 449 376 375 489 462 524 614 528 498
660 770 862 1452 1427 1292 1226 1015 778 809 681 792 736 811 866 759 797 551 318 136 223 91 255 598 631 794 784 602 508 581 731 962 574 229 345 277 406 507 444 456 322 358 466
365 467 886 1354 1445 1484 1481 1259 1065 985 845 669 777 844 880 743 578 231 176 44 179 203 122 829 919 878 865 721 909 1177 1002 705 286 263 219 161 132 438 416 327 293 351 327
317 460 1381 1439 1587 1526 1598 1418 1393 938 1090 841 888 830 781 546 542 388 271 12 5 189 498 1162 1055 846 735 997 915 633 570 449 205 191 194 216 149 324 360 323 227 206 353
331 468 1173 1579 1659 1594 1841 1852 1708 1305 671 564 440 498 744 616 304 182 66 94 206 287 901 978 798 815 948 581 910 617 281 167 125 111 40 164 170 307 249 275 262 384 286
350 331 1023 1502 1665 1792 1913 1961 1900 1378 1275 1127 522 399 287 162 339 329 275 684 838 887 819 1019 848 850 1010 1024 855 735 725 145 86 151 154 139 260 390 237 237 245 286 342
360 843 1004 1654 1757 1912 1877 1954 1802 1597 1344 1158 1453 1164 428 321 117 596 1071 1311 1046 1004 1004 909 907 923 763 566 472 554 513 694 98 85 134 119 442 305 328 358 202 256 194
498 877 944 1414 1694 1974 2086 2035 1978 2006 1771 1489 1241 1350 1291 953 1041 1303 1422 1268 1124 1234 1066 1070 843 707 610 519 590 1075 940 634 81 62 7 33 568 340 380 305 423 179 175
614 714 1285 1381 1429 1629 1778 2050 2045 1893 1934 2032 1725 1798 1774 1751 1618 1486 1541 1156 1031 1209 1124 929 766 669 523 419 412 693 972 639 336 489 168 123 625 393 358 397 217 514 273
598 739 596 697 1498 1794 2131 2020 2165 2060 1850 1816 1858 1866 1713 1084 1174 1187 1243 1019 655 905 975 771 618 516 436 473 652 688 704 486 370 468 451 296 669 799 667 434 344 196 326
353 672 649 674 702 1089 878 1938 1964 1613 1555 1417 1747 1966 1720 1413 1149 1021 1579 1385 1152 741 806 736 641 655 409 139 323 203 225 364 501 475 565 576 367 653 811 859 586 288 276
184 304 702 986 948 742 1286 1248 1549 1621 1639 1902 1731 1373 1340 1085 850 534 603 903 1220 1309 686 307 445 320 85 93 74 81 92 149 229 377 535 1057 605 612 782 923 833 551 335
443 534 442 740 1032 1042 922 762 951 1069 957 906 1366 1379 1191 739 391 409 324 364 570 496 401 499 289 189 252 216 129 234 193 274 239 387 805 1424 867 961 1105 1145 1115 903 661
528 665 761 594 1127 1201 1252 768 492 530 395 375 684 951 738 769 809 688 489 338 378 447 178 122 258 212 196 104 159 269 642 555 461 510 554 1932 1614 1216 1085 1474 1454 1317 1178
539 619 816 861 670 906 1088 1150 793 839 508 732 1115 1271 1615 1482 1429 1274 1319 1121 1124 1070 988 616 958 711 282 131 391 773 686 682 667 761 592 484 1968 1541 1366 1577 1833 1715 1375
640 753 818 1084 763 654 1294 1510 1572 946 973 1200 1262 1296 1790 1885 1744 1869 1265 1591 1392 1653 2041 1800 1688 1503 1242 827 908 938 890 871 761 844 864 516 872 1603 1492 1647 1765 1985 1608
645 949 977 713 992 1001 968 1385 1228 1297 1322 1339 1053 1151 1505 1460 1455 1748 2058 1968 1620 1833 2668 1358 1446 1381 1298 1299 1157 1069 1009 815 963 1197 1209 1003 1177 1088 1422 2052 2174 1962 1883
773 1180 1265 1169 1062 1241 1447 1327 1489 1560 1623 1484 1465 1316 1369 1435 1310 1856 1315 1458 1850 1742 2103 1996 1381 1643 1520 1454 1046 1142 1174 1175 1245 1242 1293 1458 1787 1815 1475 2031 1844 1957 1633
932 1111 1397 1348 1394 1547 1537 1680 1574 1570 1378 1166 1479 1353 1589 1577 1657 2047 1436 1823 1962 1593 1290 1251 1827 1304 1301 2110 1390 1251 1232 1341 1584 1682 1507 1478 1604 1967 1844 1742 2092 1736 1887
936 1060 1340 1575 1720 1740 1729 1618 1677 1616 1420 1183 1256 1550 2045 1916 1944 2106 1689 1711 1818 1809 1633 1904 2158 2109 1709 435 891 1214 1156 1266 1483 1520 1352 1027 1103 1238 1542 1834 2395 1776 2195
877 1114 1444 1531 2202 1897 1796 1950 1700 1413 1374 1233 1437 1910 2186 2244 2370 1974 2131 552 1155 1476 1674 1560 1812 1611 1760 1564 1268 1290 1118 1232 1705 1246 773 651 775 989 1284 1580 1642 1712 1629
778 1157 1451 1719 1969 1983 1766 2155 2211 1798 1717 1753 1654 1992 2162 2394 2475 2405 2357 1318 1099 1916 1305 1738 1713 1724 1376 1273 1715 2752 1590 1811 681 790 925 726 781 783 767 1078 1049 1283 1664
502 838 1323 1722 2014 2034 2184 2102 2105 1593 1269 1220 1548 1693 1651 1828 2030 1692 1869 2430 2407 1631 1917 1998 2069 1952 2083 1768 1746 1647 2118 1517 842 919 707 646 433 523 703 536 292 946 1166
429 748 1302 1889 2034 2079 2395 2243 2397 2282 1419 1372 1789 2141 2093 1887 1680 1850 2201 2244 1975 1472 1698 1760 1738 1943 1552 1591 1554 1893 1679 1889 1374 1240 823 571 467 657 539 224 353 669 1243
692 889 1230 1890 2341 1897 2440 2613 2629 2182 1751 1856 2362 1973 1687 1463 1700 2361 2215 2134 1942 1400 873 406 926 1367 1738 1754 1613 1832 1686 2273 2280 688 700 605 259 12 22 3 198 530 1267